RH
91 90 89 90 91 89 86 85 81 81 79 73 70 73 76 80 86 82 83 82 85 83
91 90 88 86 85 85 86 82 82 80 78 77 75 73 75 81 82 85 88 89 88 90
90 86 88 92 91 88 85 83 85 84 80 77 76 77 80 86 85 86 87 88 92 92
90 86 89 87 84 84 86 87 87 88 87 87 87 84 85 84 84 86 88 87 91 90
91 87 89 90 92 88 90 90 93 96 96 93 89 81 80 83 80 85 88 83 79 82
92 91 91 94 96 98 98 96 92 87 90 84 79 79 80 78 74 75 75 72 73 72
98 98 97 95 97 96 91 88 81 76 79 76 75 73 73 72 72 73 71 71 73 72
95 95 95 95 94 93 91 86 80 77 76 73 70 67 71 71 73 72 70 67 65 69
92 93 94 93 93 91 87 82 79 76 74 75 65 69 74 71 73 70 68 69 68 67
91 93 93 93 89 86 83 80 78 77 75 74 74 69 73 77 72 71 70 67 64 61
90 90 90 89 88 83 81 78 78 77 77 76 71 71 72 74 72 69 68 65 67 72
86 84 82 82 81 80 78 79 76 72 72 72 70 73 72 79 78 73 71 69 69 70
76 74 74 73 74 74 74 73 76 75 76 71 68 65 67 76 73 73 69 64 64 64
71 70 69 74 74 75 76 74 74 67 57 53 56 66 69 67 75 73 71 70 68 68
Wind_Speed
8 4 3 4 3 4 5 4 5 5 6 6 5 5 5 3 4 4 2 3 3 2
9 9 8 9 7 5 4 3 5 5 6 5 5 5 5 4 4 4 4 4 4 3
10 8 5 4 4 5 5 5 5 5 5 5 4 4 4 3 3 5 3 3 5 4
8 7 7 7 6 5 5 6 6 6 5 4 5 5 5 5 5 4 4 3 6 6
6 7 7 7 7 7 6 6 5 5 6 6 6 6 7 6 5 5 6 6 4 4
7 8 8 8 6 5 5 5 5 6 6 6 6 6 5 6 6 6 6 4 5 4
7 8 7 6 7 7 6 7 6 6 6 6 6 6 6 6 5 4 4 4 4 4
5 5 5 5 6 5 6 5 5 5 5 6 5 4 6 5 5 5 4 4 4 4
5 5 5 4 5 5 5 5 6 6 6 6 3 7 10 8 5 5 4 3 3 4
3 4 4 5 5 6 6 5 6 5 5 5 4 6 7 8 4 4 3 4 4 4
3 4 4 5 5 4 4 5 4 4 4 3 3 3 4 5 4 3 4 5 5 4
4 4 5 5 5 3 3 3 3 3 4 3 1 1 3 4 4 4 4 4 4 5
4 4 4 4 4 2 2 3 3 4 3 4 3 2 2 3 2 3 3 4 4 7
3 5 5 5 3 4 5 5 5 5 4 5 4 2 2 7 4 3 3 3 3 3
Wind_Direction
163 164 170 177 182 204 177 165 176 170 157 166 155 127 143 144 163 133 160 121 143 199
168 176 185 183 177 176 144 160 190 176 153 175 153 161 157 167 155 144 209 164 192 196
185 188 195 153 197 180 168 163 159 156 163 171 162 175 175 167 175 184 181 156 195 201
191 186 173 182 179 175 163 169 170 164 166 166 181 195 192 202 201 176 159 181 194 212
181 179 183 179 170 168 170 164 165 172 191 193 197 192 189 184 174 185 200 207 195 218
187 182 184 177 184 178 177 192 192 177 196 194 202 184 191 186 183 190 208 202 200 213
189 195 197 190 188 184 183 178 182 185 189 187 191 191 184 178 185 186 195 203 212 206
197 193 178 178 188 176 183 180 167 163 188 188 187 182 175 176 181 186 199 214 221 221
175 177 185 173 170 162 167 163 164 183 179 178 193 192 184 171 178 189 196 227 248 246
135 156 152 149 155 167 169 155 174 174 168 187 201 203 195 182 166 169 191 220 239 255
130 137 139 151 162 135 137 164 158 171 168 161 207 215 207 194 156 181 210 225 232 233
149 146 148 153 148 131 130 137 140 143 158 170 214 214 215 167 168 196 231 242 241 234
145 145 152 144 132 94 92 116 131 118 127 158 136 78 89 137 122 243 243 244 243 249
74 124 132 128 130 131 120 115 107 107 98 99 95 37 275 237 197 216 236 250 265 258